User: anonymous   Login
Location: Unspecified
(0.0000°N, 0.0000°E)
Time: 06:48:24
(UTC+00:00)
Language:

N. Korean satellite - Orbit

View from above orbital plane
View from above orbital plane
View from above satellite
View from above satellite

Ground track
Ground track

The orbit data is extracted from the following two-line orbital elements,

1 39026U 12072A   17205.46441550 +.00001613 +00000-0 +64803-4 0  9992
2 39026 097.2224 222.0323 0041746 046.9444 313.5277 15.25561179255614
Epoch (UTC): 24 July 2017 11:08:45
Eccentricity: 0.0041746
inclination: 97.2224°
perigee height: 460 km
apogee height: 518 km
right ascension of ascending node: 222.0323°
argument of perigee: 46.9444°
revolutions per day: 15.25561179
mean anomaly at epoch: 313.5277°
orbit number at epoch: 25561

The dashed part of the orbit path shows where the satellite is in the earth's shadow,  

DLR